GNOMES-5 (60574 NORAD) Tracking and Keplerian Element Data

This shows tracking and keplerian element data for the satellite.

Feedback or suggestion? Click here.




ElementValue
Catalog60574
NameGNOMES-5
Epoch Orbit848
Epoch Day286.74892181
Epoch Year2024
RAAN1.3127
Inclination97.7426
Eccentricity0.0002283
Argument of Perigee349.3107
Mean Anonmoly10.8063
Mean Motion14.9327229
Decay Rate0.00011049
L11 60574U 24149DL 24286.74892181 .00011049 00000+0 10599-2 0 9994
L22 60574 97.7426 1.3127 0002283 349.3107 10.8063 14.93272290 8482



Live tracking and technical data element details for GNOMES-5 (NORAD 60574). GNOMES-5 can be tracked NOW for your location showing map with azimuth and elevation plus other details from your city location.







IsCatalogInMostPopularTable: catalog: 60574, numindb: 5
Update: records affected: 1



GetName: 60574 GNOMES-5

Hit Count: updated at: Tue, 03 Dec 2024 03:21:49 GMT